Flag for Chile Weather past 2 weeks in Talcahuano, Chile

Now
55 °F

Passing clouds.


Feels Like: 55 °F
Forecast: 52 / 56 °F
Wind: 5 mph from Northeast

Location: Concepcion Airport

Current Time: Sep 21, 2014 at 1:30:11 AM

Latest Report: Sep 21, 2014 at 1:00 AM


Visibility: N/A

Pressure: 30.04 "Hg

Humidity: 94%

Dew point: 54 °F

Location of TalcahuanoLocation

Historic Weather in Talcahuano — Graph

°F

Talcahuano temperature yesterday

Maximum temperature yesterday: 63 °F (at 5:00 PM)
Minimum temperature yesterday: 54 °F (at 12:00 AM)
Average temperature yesterday: 56 °F

Past Weeks' High & Low Weather Summary

 TemperatureHumidityPressure
High66 °F (Sep 15, 5:00 PM)100% (Sep 7, 10:00 AM)30.36 "Hg (Sep 7, 10:00 AM)
Low37 °F (Sep 9, 7:00 AM)48% (Sep 11, 1:00 PM)29.92 "Hg (Sep 8, 5:00 AM)
Average52 °F83%30.10 "Hg
* Reported Sep 5 11:00 PM — Midnight between Sep 20 and Sep 21, Talcahuano, Weather by CustomWeather, © 2014

Note: Actual official high and low records may vary slightly from our data, if they occured in-between our weather recording intervals... More about our weather records

Advertising

Talcahuano weather history for previous 24 hours

 ConditionsComfort  
Time TempWeatherWind HumidityBarometerVisibility
12:00 AM
Sep 21
55 °FPassing clouds.2 mph94%30.07 "HgN/A
11:00 PM
Sep 20
55 °FLow clouds.5 mph94%30.07 "HgN/A
10:00 PM55 °FLow clouds.3 mph94%30.07 "HgN/A
9:00 PM55 °FOvercast.No wind94%30.07 "HgN/A
8:00 PM55 °FPassing clouds.3 mph94%30.07 "HgN/A
7:00 PM55 °FPassing clouds.7 mph94%30.07 "HgN/A
6:00 PM57 °FPartly sunny.8 mph88%30.07 "HgN/A
5:00 PM63 °FBroken clouds.3 mph68%30.07 "HgN/A
4:00 PM59 °FPassing clouds.5 mph82%30.09 "HgN/A
3:00 PM57 °FBroken clouds.6 mph88%30.12 "HgN/A
10:00 AM55 °FLow clouds.2 mph88%30.18 "HgN/A
9:00 AM55 °FLow clouds.2 mph88%30.18 "HgN/A
8:00 AM54 °FFog.3 mph94%30.18 "Hg4 mi
7:00 AM54 °FMore clouds than sun.No wind94%30.18 "HgN/A
6:00 AM54 °FMostly cloudy.No wind100%30.21 "HgN/A
5:00 AM54 °FOvercast.3 mph100%30.18 "HgN/A
4:00 AM55 °FOvercast.5 mph88%30.21 "HgN/A
3:00 AM55 °FOvercast.3 mph88%30.24 "HgN/A
2:00 AM55 °FOvercast.3 mph88%30.24 "HgN/A
1:00 AM55 °FOvercast.3 mph94%30.24 "HgN/A
Weather by CustomWeather, © 2014

See weather overviewHow to use our weather pages